Year,Month,Day,Hour,Minute,Value (Times are PST for temperature in C)
2010,07,23,00,00,12.10
2010,07,23,00,01,12.10
2010,07,23,00,02,12.10
2010,07,23,00,03,12.10
2010,07,23,00,04,12.10
2010,07,23,00,05,12.10
2010,07,23,00,06,12.10
2010,07,23,00,07,12.10
2010,07,23,00,08,12.10
2010,07,23,00,09,12.10
2010,07,23,00,10,12.10
2010,07,23,00,11,12.10
2010,07,23,00,12,12.00
2010,07,23,00,13,12.00
2010,07,23,00,14,12.00
2010,07,23,00,15,12.00
2010,07,23,00,16,12.00
2010,07,23,00,17,12.00
2010,07,23,00,18,12.00
2010,07,23,00,19,12.00
2010,07,23,00,20,12.00
2010,07,23,00,21,12.00
2010,07,23,00,22,11.90
2010,07,23,00,23,11.90
2010,07,23,00,24,11.90
2010,07,23,00,25,11.90
2010,07,23,00,26,11.90
2010,07,23,00,27,11.90
2010,07,23,00,28,11.90
2010,07,23,00,29,11.90
2010,07,23,00,30,11.90
2010,07,23,00,31,11.90
2010,07,23,00,32,11.90
2010,07,23,00,33,11.90
2010,07,23,00,34,11.90
2010,07,23,00,35,11.90
2010,07,23,00,36,11.90
2010,07,23,00,37,11.90
2010,07,23,00,38,11.90
2010,07,23,00,39,11.80
2010,07,23,00,40,11.80
2010,07,23,00,41,11.80
2010,07,23,00,42,11.80
2010,07,23,00,43,11.80
2010,07,23,00,44,11.80
2010,07,23,00,45,11.80
2010,07,23,00,46,11.80
2010,07,23,00,47,11.80
2010,07,23,00,48,11.80
2010,07,23,00,49,11.80
2010,07,23,00,50,11.80
2010,07,23,00,51,11.80
2010,07,23,00,52,11.80
2010,07,23,00,53,11.80
2010,07,23,00,54,11.80
2010,07,23,00,55,11.80
2010,07,23,00,56,11.80
2010,07,23,00,57,11.80
2010,07,23,00,58,11.70
2010,07,23,00,59,11.70
2010,07,23,01,00,11.70
2010,07,23,01,01,11.70
2010,07,23,01,02,11.70
2010,07,23,01,03,11.70
2010,07,23,01,04,11.70
2010,07,23,01,05,11.70
2010,07,23,01,06,11.70
2010,07,23,01,07,11.70
2010,07,23,01,08,11.70
2010,07,23,01,09,11.70
2010,07,23,01,10,11.70
2010,07,23,01,11,11.70
2010,07,23,01,12,11.70
2010,07,23,01,13,11.70
2010,07,23,01,14,11.70
2010,07,23,01,15,11.60
2010,07,23,01,16,11.60
2010,07,23,01,17,11.60
2010,07,23,01,18,11.60
2010,07,23,01,19,11.60
2010,07,23,01,20,11.60
2010,07,23,01,21,11.60
2010,07,23,01,22,11.60
2010,07,23,01,23,11.60
2010,07,23,01,24,11.60
2010,07,23,01,25,11.60
2010,07,23,01,26,11.60
2010,07,23,01,27,11.60
2010,07,23,01,28,11.50
2010,07,23,01,29,11.50
2010,07,23,01,30,11.50
2010,07,23,01,31,11.50
2010,07,23,01,32,11.50
2010,07,23,01,33,11.50
2010,07,23,01,34,11.50
2010,07,23,01,35,11.50
2010,07,23,01,36,11.50
2010,07,23,01,37,11.50
2010,07,23,01,38,11.50
2010,07,23,01,39,11.40
2010,07,23,01,40,11.40
2010,07,23,01,41,11.40
2010,07,23,01,42,11.40
2010,07,23,01,43,11.40
2010,07,23,01,44,11.40
2010,07,23,01,45,11.40
2010,07,23,01,46,11.40
2010,07,23,01,47,11.40
2010,07,23,01,48,11.40
2010,07,23,01,49,11.40
2010,07,23,01,50,11.30
2010,07,23,01,51,11.30
2010,07,23,01,52,11.30
2010,07,23,01,53,11.30
2010,07,23,01,54,11.30
2010,07,23,01,55,11.30
2010,07,23,01,56,11.30
2010,07,23,01,57,11.30
2010,07,23,01,58,11.30
2010,07,23,01,59,11.30
2010,07,23,02,00,11.30
2010,07,23,02,01,11.30
2010,07,23,02,02,11.30
2010,07,23,02,03,11.30
2010,07,23,02,04,11.30
2010,07,23,02,05,11.30
2010,07,23,02,06,11.30
2010,07,23,02,07,11.30
2010,07,23,02,08,11.30
2010,07,23,02,09,11.30
2010,07,23,02,10,11.30
2010,07,23,02,11,11.30
2010,07,23,02,12,11.30
2010,07,23,02,13,11.30
2010,07,23,02,14,11.30
2010,07,23,02,15,11.20
2010,07,23,02,16,11.20
2010,07,23,02,17,11.20
2010,07,23,02,18,11.20
2010,07,23,02,19,11.20
2010,07,23,02,20,11.20
2010,07,23,02,21,11.20
2010,07,23,02,22,11.20
2010,07,23,02,23,11.20
2010,07,23,02,24,11.20
2010,07,23,02,25,11.20
2010,07,23,02,26,11.20
2010,07,23,02,27,11.20
2010,07,23,02,28,11.20
2010,07,23,02,29,11.20
2010,07,23,02,30,11.20
2010,07,23,02,31,11.20
2010,07,23,02,32,11.20
2010,07,23,02,33,11.20
2010,07,23,02,34,11.20
2010,07,23,02,35,11.20
2010,07,23,02,36,11.20
2010,07,23,02,37,11.20
2010,07,23,02,38,11.10
2010,07,23,02,39,11.20
2010,07,23,02,40,11.20
2010,07,23,02,41,11.20
2010,07,23,02,42,11.10
2010,07,23,02,43,11.10
2010,07,23,02,44,11.10
2010,07,23,02,45,11.10
2010,07,23,02,46,11.10
2010,07,23,02,47,11.10
2010,07,23,02,48,11.10
2010,07,23,02,49,11.10
2010,07,23,02,50,11.10
2010,07,23,02,51,11.10
2010,07,23,02,52,11.10
2010,07,23,02,53,11.10
2010,07,23,02,54,11.10
2010,07,23,02,55,11.10
2010,07,23,02,56,11.10
2010,07,23,02,57,11.10
2010,07,23,02,58,11.10
2010,07,23,02,59,11.10
2010,07,23,03,00,11.10
2010,07,23,03,01,11.10
2010,07,23,03,02,11.00
2010,07,23,03,03,11.00
2010,07,23,03,04,11.00
2010,07,23,03,05,11.00
2010,07,23,03,06,11.00
2010,07,23,03,07,11.00
2010,07,23,03,08,10.90
2010,07,23,03,09,10.90
2010,07,23,03,10,10.90
2010,07,23,03,11,10.90
2010,07,23,03,12,10.90
2010,07,23,03,13,10.90
2010,07,23,03,14,10.90
2010,07,23,03,15,10.90
2010,07,23,03,16,10.90
2010,07,23,03,17,10.90
2010,07,23,03,18,10.90
2010,07,23,03,19,10.90
2010,07,23,03,20,10.90
2010,07,23,03,21,10.90
2010,07,23,03,22,10.80
2010,07,23,03,23,10.80
2010,07,23,03,24,10.80
2010,07,23,03,25,10.80
2010,07,23,03,26,10.80
2010,07,23,03,27,10.80
2010,07,23,03,28,10.80
2010,07,23,03,29,10.80
2010,07,23,03,30,10.80
2010,07,23,03,31,10.70
2010,07,23,03,32,10.70
2010,07,23,03,33,10.70
2010,07,23,03,34,10.70
2010,07,23,03,35,10.70
2010,07,23,03,36,10.70
2010,07,23,03,37,10.70
2010,07,23,03,38,10.70
2010,07,23,03,39,10.70
2010,07,23,03,40,10.60
2010,07,23,03,41,10.60
2010,07,23,03,42,10.60
2010,07,23,03,43,10.60
2010,07,23,03,44,10.60
2010,07,23,03,45,10.60
2010,07,23,03,46,10.50
2010,07,23,03,47,10.50
2010,07,23,03,48,10.50
2010,07,23,03,49,10.50
2010,07,23,03,50,10.50
2010,07,23,03,51,10.50
2010,07,23,03,52,10.40
2010,07,23,03,53,10.40
2010,07,23,03,54,10.40
2010,07,23,03,55,10.40
2010,07,23,03,56,10.40
2010,07,23,03,57,10.40
2010,07,23,03,58,10.40
2010,07,23,03,59,10.40
2010,07,23,04,00,10.40
2010,07,23,04,01,10.40
2010,07,23,04,02,10.30
2010,07,23,04,03,10.30
2010,07,23,04,04,10.30
2010,07,23,04,05,10.30
2010,07,23,04,06,10.30
2010,07,23,04,07,10.30
2010,07,23,04,08,10.30
2010,07,23,04,09,10.30
2010,07,23,04,10,10.30
2010,07,23,04,11,10.30
2010,07,23,04,12,10.30
2010,07,23,04,13,10.30
2010,07,23,04,14,10.30
2010,07,23,04,15,10.30
2010,07,23,04,16,10.20
2010,07,23,04,17,10.20
2010,07,23,04,18,10.20
2010,07,23,04,19,10.20
2010,07,23,04,20,10.20
2010,07,23,04,21,10.20
2010,07,23,04,22,10.20
2010,07,23,04,23,10.20
2010,07,23,04,24,10.20
2010,07,23,04,25,10.20
2010,07,23,04,26,10.20
2010,07,23,04,27,10.20
2010,07,23,04,28,10.20
2010,07,23,04,29,10.20
2010,07,23,04,30,10.20
2010,07,23,04,31,10.20
2010,07,23,04,32,10.30
2010,07,23,04,33,10.30
2010,07,23,04,34,10.30
2010,07,23,04,35,10.30
2010,07,23,04,36,10.30
2010,07,23,04,37,10.30
2010,07,23,04,38,10.30
2010,07,23,04,39,10.30
2010,07,23,04,40,10.30
2010,07,23,04,41,10.40
2010,07,23,04,42,10.40
2010,07,23,04,43,10.50
2010,07,23,04,44,10.50
2010,07,23,04,45,10.50
2010,07,23,04,46,10.50
2010,07,23,04,47,10.50
2010,07,23,04,48,10.50
2010,07,23,04,49,10.50
2010,07,23,04,50,10.50
2010,07,23,04,51,10.40
2010,07,23,04,52,10.40
2010,07,23,04,53,10.40
2010,07,23,04,54,10.40
2010,07,23,04,55,10.30
2010,07,23,04,56,10.30
2010,07,23,04,57,10.30
2010,07,23,04,58,10.30
2010,07,23,04,59,10.20
2010,07,23,05,00,10.20
2010,07,23,05,01,10.20
2010,07,23,05,02,10.20
2010,07,23,05,03,10.20
2010,07,23,05,04,10.20
2010,07,23,05,05,10.20
2010,07,23,05,06,10.20
2010,07,23,05,07,10.30
2010,07,23,05,08,10.30
2010,07,23,05,09,10.30
2010,07,23,05,10,10.30
2010,07,23,05,11,10.30
2010,07,23,05,12,10.30
2010,07,23,05,13,10.30
2010,07,23,05,14,10.30
2010,07,23,05,15,10.30
2010,07,23,05,16,10.30
2010,07,23,05,17,10.30
2010,07,23,05,18,10.30
2010,07,23,05,19,10.30
2010,07,23,05,20,10.30
2010,07,23,05,21,10.20
2010,07,23,05,22,10.20
2010,07,23,05,23,10.20
2010,07,23,05,24,10.20
2010,07,23,05,25,10.20
2010,07,23,05,26,10.10
2010,07,23,05,27,10.10
2010,07,23,05,28,10.10
2010,07,23,05,29,10.10
2010,07,23,05,30,10.10
2010,07,23,05,31,10.10
2010,07,23,05,32,10.10
2010,07,23,05,33,10.10
2010,07,23,05,34,10.10
2010,07,23,05,35,10.10
2010,07,23,05,36,10.10
2010,07,23,05,37,10.10
2010,07,23,05,38,10.10
2010,07,23,05,39,10.10
2010,07,23,05,40,10.10
2010,07,23,05,41,10.10
2010,07,23,05,42,10.10
2010,07,23,05,43,10.10
2010,07,23,05,44,10.10
2010,07,23,05,45,10.10
2010,07,23,05,46,10.10
2010,07,23,05,47,10.10
2010,07,23,05,48,10.10
2010,07,23,05,49,10.10
2010,07,23,05,50,10.10
2010,07,23,05,51,10.10
2010,07,23,05,52,10.10
2010,07,23,05,53,10.10
2010,07,23,05,54,10.10
2010,07,23,05,55,10.10
2010,07,23,05,56,10.10
2010,07,23,05,57,10.10
2010,07,23,05,58,10.20
2010,07,23,05,59,10.20
2010,07,23,06,00,10.20
2010,07,23,06,01,10.20
2010,07,23,06,02,10.20
2010,07,23,06,03,10.20
2010,07,23,06,04,10.20
2010,07,23,06,05,10.20
2010,07,23,06,06,10.20
2010,07,23,06,07,10.20
2010,07,23,06,08,10.20
2010,07,23,06,09,10.20
2010,07,23,06,10,10.20
2010,07,23,06,11,10.30
2010,07,23,06,12,10.30
2010,07,23,06,13,10.30
2010,07,23,06,14,10.30
2010,07,23,06,15,10.30
2010,07,23,06,16,10.30
2010,07,23,06,17,10.30
2010,07,23,06,18,10.30
2010,07,23,06,19,10.40
2010,07,23,06,20,10.40
2010,07,23,06,21,10.40
2010,07,23,06,22,10.40
2010,07,23,06,23,10.40
2010,07,23,06,24,10.40
2010,07,23,06,25,10.40
2010,07,23,06,26,10.40
2010,07,23,06,27,10.40
2010,07,23,06,28,10.40
2010,07,23,06,29,10.40
2010,07,23,06,30,10.40
2010,07,23,06,31,10.40
2010,07,23,06,32,10.40
2010,07,23,06,33,10.50
2010,07,23,06,34,10.50
2010,07,23,06,35,10.50
2010,07,23,06,36,10.60
2010,07,23,06,37,10.60
2010,07,23,06,38,10.60
2010,07,23,06,39,10.60
2010,07,23,06,40,10.60
2010,07,23,06,41,10.70
2010,07,23,06,42,10.70
2010,07,23,06,43,10.70
2010,07,23,06,44,10.70
2010,07,23,06,45,10.80
2010,07,23,06,46,10.80
2010,07,23,06,47,10.80
2010,07,23,06,48,10.80
2010,07,23,06,49,10.90
2010,07,23,06,50,10.90
2010,07,23,06,51,10.90
2010,07,23,06,52,10.90
2010,07,23,06,53,10.90
2010,07,23,06,54,10.90
2010,07,23,06,55,10.90
2010,07,23,06,56,10.90
2010,07,23,06,57,10.90
2010,07,23,06,58,10.90
2010,07,23,06,59,10.90
2010,07,23,07,00,10.90
2010,07,23,07,01,10.90
2010,07,23,07,02,10.90
2010,07,23,07,03,10.90
2010,07,23,07,04,11.00
2010,07,23,07,05,11.00
2010,07,23,07,06,11.00
2010,07,23,07,07,11.00
2010,07,23,07,08,11.00
2010,07,23,07,09,11.00
2010,07,23,07,10,11.00
2010,07,23,07,11,11.00
2010,07,23,07,12,11.00
2010,07,23,07,13,11.00
2010,07,23,07,14,11.00
2010,07,23,07,15,11.00
2010,07,23,07,16,11.00
2010,07,23,07,17,11.00
2010,07,23,07,18,11.00
2010,07,23,07,19,11.00
2010,07,23,07,20,11.00
2010,07,23,07,21,11.10
2010,07,23,07,22,11.10
2010,07,23,07,23,11.10
2010,07,23,07,24,11.10
2010,07,23,07,25,11.10
2010,07,23,07,26,11.20
2010,07,23,07,27,11.20
2010,07,23,07,28,11.20
2010,07,23,07,29,11.10
2010,07,23,07,30,11.10
2010,07,23,07,31,11.10
2010,07,23,07,32,11.10
2010,07,23,07,33,11.10
2010,07,23,07,34,11.10
2010,07,23,07,35,11.10
2010,07,23,07,36,11.10
2010,07,23,07,37,11.10
2010,07,23,07,38,11.20
2010,07,23,07,39,11.20
2010,07,23,07,40,11.20
2010,07,23,07,41,11.30
2010,07,23,07,42,11.30
2010,07,23,07,43,11.40
2010,07,23,07,44,11.40
2010,07,23,07,45,11.50
2010,07,23,07,46,11.50
2010,07,23,07,47,11.60
2010,07,23,07,48,11.60
2010,07,23,07,49,11.70
2010,07,23,07,50,11.70
2010,07,23,07,51,11.70
2010,07,23,07,52,11.70
2010,07,23,07,53,11.70
2010,07,23,07,54,11.80
2010,07,23,07,55,11.80
2010,07,23,07,56,11.80
2010,07,23,07,57,11.90
2010,07,23,07,58,11.90
2010,07,23,07,59,11.90
2010,07,23,08,00,12.00
2010,07,23,08,01,12.10
2010,07,23,08,02,12.10
2010,07,23,08,03,12.20
2010,07,23,08,04,12.20
2010,07,23,08,05,12.20
2010,07,23,08,06,12.30
2010,07,23,08,07,12.30
2010,07,23,08,08,12.30
2010,07,23,08,09,12.30
2010,07,23,08,10,12.40
2010,07,23,08,11,12.40
2010,07,23,08,12,12.40
2010,07,23,08,13,12.40
2010,07,23,08,14,12.40
2010,07,23,08,15,12.40
2010,07,23,08,16,12.50
2010,07,23,08,17,12.50
2010,07,23,08,18,12.40
2010,07,23,08,19,12.50
2010,07,23,08,20,12.50
2010,07,23,08,21,12.60
2010,07,23,08,22,12.60
2010,07,23,08,23,12.60
2010,07,23,08,24,12.60
2010,07,23,08,25,12.60
2010,07,23,08,26,12.60
2010,07,23,08,27,12.60
2010,07,23,08,28,12.70
2010,07,23,08,29,12.70
2010,07,23,08,30,12.80
2010,07,23,08,31,12.80
2010,07,23,08,32,12.80
2010,07,23,08,33,12.80
2010,07,23,08,34,12.90
2010,07,23,08,35,12.90
2010,07,23,08,36,13.00
2010,07,23,08,37,13.00
2010,07,23,08,38,13.00
2010,07,23,08,39,13.10
2010,07,23,08,40,13.10
2010,07,23,08,41,13.10
2010,07,23,08,42,13.20
2010,07,23,08,43,13.20
2010,07,23,08,44,13.30
2010,07,23,08,45,13.30
2010,07,23,08,46,13.30
2010,07,23,08,47,13.30
2010,07,23,08,48,13.30
2010,07,23,08,49,13.30
2010,07,23,08,50,13.40
2010,07,23,08,51,13.50
2010,07,23,08,52,13.50
2010,07,23,08,53,13.60
2010,07,23,08,54,13.50
2010,07,23,08,55,13.50
2010,07,23,08,56,13.60
2010,07,23,08,57,13.60
2010,07,23,08,58,13.60
2010,07,23,08,59,13.70
2010,07,23,09,00,13.80
2010,07,23,09,01,13.80
2010,07,23,09,02,13.90
2010,07,23,09,03,14.00
2010,07,23,09,04,14.10
2010,07,23,09,05,14.10
2010,07,23,09,06,14.10
2010,07,23,09,07,14.20
2010,07,23,09,08,14.20
2010,07,23,09,09,14.20
2010,07,23,09,10,14.30
2010,07,23,09,11,14.30
2010,07,23,09,12,14.30
2010,07,23,09,13,14.40
2010,07,23,09,14,14.40
2010,07,23,09,15,14.50
2010,07,23,09,16,14.50
2010,07,23,09,17,14.60
2010,07,23,09,18,14.70
2010,07,23,09,19,14.80
2010,07,23,09,20,14.70
2010,07,23,09,21,14.70
2010,07,23,09,22,14.70
2010,07,23,09,23,14.70
2010,07,23,09,24,14.60
2010,07,23,09,25,14.60
2010,07,23,09,26,14.60
2010,07,23,09,27,14.70
2010,07,23,09,28,14.80
2010,07,23,09,29,14.80
2010,07,23,09,30,14.80
2010,07,23,09,31,14.90
2010,07,23,09,32,14.80
2010,07,23,09,33,14.80
2010,07,23,09,34,14.80
2010,07,23,09,35,14.80
2010,07,23,09,36,14.80
2010,07,23,09,37,14.70
2010,07,23,09,38,14.80
2010,07,23,09,39,14.80
2010,07,23,09,40,14.80
2010,07,23,09,41,14.80
2010,07,23,09,42,14.80
2010,07,23,09,43,14.70
2010,07,23,09,44,14.70
2010,07,23,09,45,14.70
2010,07,23,09,46,14.60
2010,07,23,09,47,14.60
2010,07,23,09,48,14.60
2010,07,23,09,49,14.70
2010,07,23,09,50,14.70
2010,07,23,09,51,14.70
2010,07,23,09,52,14.70
2010,07,23,09,53,14.70
2010,07,23,09,54,14.70
2010,07,23,09,55,14.70
2010,07,23,09,56,14.70
2010,07,23,09,57,14.60
2010,07,23,09,58,14.70
2010,07,23,09,59,14.70
2010,07,23,10,00,14.80
2010,07,23,10,01,14.80
2010,07,23,10,02,14.80
2010,07,23,10,03,14.80
2010,07,23,10,04,14.90
2010,07,23,10,05,14.90
2010,07,23,10,06,15.00
2010,07,23,10,07,15.00
2010,07,23,10,08,15.00
2010,07,23,10,09,15.00
2010,07,23,10,10,15.00
2010,07,23,10,11,15.00
2010,07,23,10,12,15.00
2010,07,23,10,13,15.10
2010,07,23,10,14,15.20
2010,07,23,10,15,15.30
2010,07,23,10,16,15.40
2010,07,23,10,17,15.50
2010,07,23,10,18,15.60
2010,07,23,10,19,15.70
2010,07,23,10,20,15.70
2010,07,23,10,21,15.80
2010,07,23,10,22,15.90
2010,07,23,10,23,16.00
2010,07,23,10,24,16.10
2010,07,23,10,25,16.20
2010,07,23,10,26,16.30
2010,07,23,10,27,16.40
2010,07,23,10,28,16.50
2010,07,23,10,29,16.60
2010,07,23,10,30,16.70
2010,07,23,10,31,16.70
2010,07,23,10,32,16.60
2010,07,23,10,33,16.70
2010,07,23,10,34,16.70
2010,07,23,10,35,16.70
2010,07,23,10,36,16.70
2010,07,23,10,37,16.70
2010,07,23,10,38,16.70
2010,07,23,10,39,16.70
2010,07,23,10,40,16.70
2010,07,23,10,41,16.70
2010,07,23,10,42,16.70
2010,07,23,10,43,16.80
2010,07,23,10,44,16.80
2010,07,23,10,45,16.80
2010,07,23,10,46,16.90
2010,07,23,10,47,17.00
2010,07,23,10,48,17.10
2010,07,23,10,49,17.20
2010,07,23,10,50,17.30
2010,07,23,10,51,17.40
2010,07,23,10,52,17.40
2010,07,23,10,53,17.50
2010,07,23,10,54,17.60
2010,07,23,10,55,17.60
2010,07,23,10,56,17.70
2010,07,23,10,57,17.80
2010,07,23,10,58,17.80
2010,07,23,10,59,17.90
2010,07,23,11,00,17.90
2010,07,23,11,01,18.00
2010,07,23,11,02,18.10
2010,07,23,11,03,18.10
2010,07,23,11,04,18.20
2010,07,23,11,05,18.20
2010,07,23,11,06,18.20
2010,07,23,11,07,18.30
2010,07,23,11,08,18.40
2010,07,23,11,09,18.40
2010,07,23,11,10,18.50
2010,07,23,11,11,18.40
2010,07,23,11,12,18.40
2010,07,23,11,13,18.50
2010,07,23,11,14,18.50
2010,07,23,11,15,18.50
2010,07,23,11,16,18.50
2010,07,23,11,17,18.60
2010,07,23,11,18,18.70
2010,07,23,11,19,18.70
2010,07,23,11,20,18.80
2010,07,23,11,21,18.80
2010,07,23,11,22,18.80
2010,07,23,11,23,18.70
2010,07,23,11,24,18.70
2010,07,23,11,25,18.60
2010,07,23,11,26,18.60
2010,07,23,11,27,18.50
2010,07,23,11,28,18.40
2010,07,23,11,29,18.30
2010,07,23,11,30,18.30
2010,07,23,11,31,18.30
2010,07,23,11,32,18.30
2010,07,23,11,33,18.40
2010,07,23,11,34,18.40
2010,07,23,11,35,18.40
2010,07,23,11,36,18.40
2010,07,23,11,37,18.40
2010,07,23,11,38,18.40
2010,07,23,11,39,18.40
2010,07,23,11,40,18.40
2010,07,23,11,41,18.40
2010,07,23,11,42,18.40
2010,07,23,11,43,18.50
2010,07,23,11,44,18.50
2010,07,23,11,45,18.50
2010,07,23,11,46,18.50
2010,07,23,11,47,18.40
2010,07,23,11,48,18.30
2010,07,23,11,49,18.30
2010,07,23,11,50,18.30
2010,07,23,11,51,18.30
2010,07,23,11,52,18.40
2010,07,23,11,53,18.30
2010,07,23,11,54,18.40
2010,07,23,11,55,18.40
2010,07,23,11,56,18.40
2010,07,23,11,57,18.40
2010,07,23,11,58,18.50
2010,07,23,11,59,18.50
2010,07,23,12,00,18.60
2010,07,23,12,01,18.60
2010,07,23,12,02,18.70
2010,07,23,12,03,18.70
2010,07,23,12,04,18.70
2010,07,23,12,05,18.70
2010,07,23,12,06,18.60
2010,07,23,12,07,18.60
2010,07,23,12,08,18.60
2010,07,23,12,09,18.60
2010,07,23,12,10,18.50
2010,07,23,12,11,18.50
2010,07,23,12,12,18.50
2010,07,23,12,13,18.60
2010,07,23,12,14,18.70
2010,07,23,12,15,18.70
2010,07,23,12,16,18.80
2010,07,23,12,17,18.80
2010,07,23,12,18,18.90
2010,07,23,12,19,18.90
2010,07,23,12,20,18.90
2010,07,23,12,21,18.90
2010,07,23,12,22,19.00
2010,07,23,12,23,19.00
2010,07,23,12,24,19.10
2010,07,23,12,25,19.10
2010,07,23,12,26,19.20
2010,07,23,12,27,19.20
2010,07,23,12,28,19.20
2010,07,23,12,29,19.20
2010,07,23,12,30,19.20
2010,07,23,12,31,19.20
2010,07,23,12,32,19.20
2010,07,23,12,33,19.20
2010,07,23,12,34,19.20
2010,07,23,12,35,19.30
2010,07,23,12,36,19.30
2010,07,23,12,37,19.30
2010,07,23,12,38,19.30
2010,07,23,12,39,19.30
2010,07,23,12,40,19.30
2010,07,23,12,41,19.20
2010,07,23,12,42,19.20
2010,07,23,12,43,19.20
2010,07,23,12,44,19.20
2010,07,23,12,45,19.20
2010,07,23,12,46,19.20
2010,07,23,12,47,19.20
2010,07,23,12,48,19.20
2010,07,23,12,49,19.30
2010,07,23,12,50,19.30
2010,07,23,12,51,19.30
2010,07,23,12,52,19.30
2010,07,23,12,53,19.30
2010,07,23,12,54,19.30
2010,07,23,12,55,19.30
2010,07,23,12,56,19.30
2010,07,23,12,57,19.30
2010,07,23,12,58,19.40
2010,07,23,12,59,19.40
2010,07,23,13,00,19.50
2010,07,23,13,01,19.50
2010,07,23,13,02,19.60
2010,07,23,13,03,19.60
2010,07,23,13,04,19.60
2010,07,23,13,05,19.60
2010,07,23,13,06,19.60
2010,07,23,13,07,19.60
2010,07,23,13,08,19.60
2010,07,23,13,09,19.60
2010,07,23,13,10,19.60
2010,07,23,13,11,19.60
2010,07,23,13,12,19.60
2010,07,23,13,13,19.70
2010,07,23,13,14,19.70
2010,07,23,13,15,19.70
2010,07,23,13,16,19.80
2010,07,23,13,17,19.80
2010,07,23,13,18,19.90
2010,07,23,13,19,20.00
2010,07,23,13,20,20.00
2010,07,23,13,21,20.00
2010,07,23,13,22,20.00
2010,07,23,13,23,20.00
2010,07,23,13,24,20.10
2010,07,23,13,25,20.20
2010,07,23,13,26,20.40
2010,07,23,13,27,20.50
2010,07,23,13,28,20.70
2010,07,23,13,29,20.80
2010,07,23,13,30,21.00
2010,07,23,13,31,21.20
2010,07,23,13,32,21.40
2010,07,23,13,33,21.50
2010,07,23,13,34,21.60
2010,07,23,13,35,21.70
2010,07,23,13,36,21.70
2010,07,23,13,37,21.70
2010,07,23,13,38,21.70
2010,07,23,13,39,21.60
2010,07,23,13,40,21.60
2010,07,23,13,41,21.60
2010,07,23,13,42,21.50
2010,07,23,13,43,21.40
2010,07,23,13,44,21.30
2010,07,23,13,45,21.40
2010,07,23,13,46,21.50
2010,07,23,13,47,21.60
2010,07,23,13,48,21.80
2010,07,23,13,49,21.80
2010,07,23,13,50,21.90
2010,07,23,13,51,22.00
2010,07,23,13,52,22.10
2010,07,23,13,53,22.10
2010,07,23,13,54,22.20
2010,07,23,13,55,22.30
2010,07,23,13,56,22.40
2010,07,23,13,57,22.60
2010,07,23,13,58,22.80
2010,07,23,13,59,22.90
2010,07,23,14,00,23.10
2010,07,23,14,01,23.20
2010,07,23,14,02,23.20
2010,07,23,14,03,23.10
2010,07,23,14,04,23.10
2010,07,23,14,05,23.10
2010,07,23,14,06,23.00
2010,07,23,14,07,22.70
2010,07,23,14,08,22.50
2010,07,23,14,09,22.50
2010,07,23,14,10,22.40
2010,07,23,14,11,22.30
2010,07,23,14,12,22.30
2010,07,23,14,13,22.20
2010,07,23,14,14,22.10
2010,07,23,14,15,22.10
2010,07,23,14,16,22.10
2010,07,23,14,17,22.10
2010,07,23,14,18,22.10
2010,07,23,14,19,22.10
2010,07,23,14,20,22.10
2010,07,23,14,21,22.10
2010,07,23,14,22,22.00
2010,07,23,14,23,22.00
2010,07,23,14,24,22.00
2010,07,23,14,25,22.00
2010,07,23,14,26,21.90
2010,07,23,14,27,21.90
2010,07,23,14,28,21.90
2010,07,23,14,29,21.80
2010,07,23,14,30,21.80
2010,07,23,14,31,21.80
2010,07,23,14,32,21.80
2010,07,23,14,33,21.80
2010,07,23,14,34,21.80
2010,07,23,14,35,21.80
2010,07,23,14,36,21.80
2010,07,23,14,37,21.90
2010,07,23,14,38,22.00
2010,07,23,14,39,22.10
2010,07,23,14,40,22.10
2010,07,23,14,41,22.20
2010,07,23,14,42,22.20
2010,07,23,14,43,22.30
2010,07,23,14,44,22.30
2010,07,23,14,45,22.30
2010,07,23,14,46,22.40
2010,07,23,14,47,22.50
2010,07,23,14,48,22.70
2010,07,23,14,49,22.80
2010,07,23,14,50,22.80
2010,07,23,14,51,22.80
2010,07,23,14,52,22.70
2010,07,23,14,53,22.60
2010,07,23,14,54,22.60
2010,07,23,14,55,22.70
2010,07,23,14,56,22.70
2010,07,23,14,57,22.70
2010,07,23,14,58,22.80
2010,07,23,14,59,22.80
2010,07,23,15,00,22.80
2010,07,23,15,01,22.80
2010,07,23,15,02,22.80
2010,07,23,15,03,22.80
2010,07,23,15,04,22.80
2010,07,23,15,05,22.80
2010,07,23,15,06,22.80
2010,07,23,15,07,22.90
2010,07,23,15,08,22.90
2010,07,23,15,09,23.00
2010,07,23,15,10,23.00
2010,07,23,15,11,23.10
2010,07,23,15,12,23.10
2010,07,23,15,13,23.20
2010,07,23,15,14,23.30
2010,07,23,15,15,23.40
2010,07,23,15,16,23.40
2010,07,23,15,17,23.40
2010,07,23,15,18,23.40
2010,07,23,15,19,23.30
2010,07,23,15,20,22.80
2010,07,23,15,21,22.20
2010,07,23,15,22,21.80
2010,07,23,15,23,21.50
2010,07,23,15,24,21.20
2010,07,23,15,25,20.90
2010,07,23,15,26,20.70
2010,07,23,15,27,20.60
2010,07,23,15,28,20.60
2010,07,23,15,29,20.70
2010,07,23,15,30,20.70
2010,07,23,15,31,20.80
2010,07,23,15,32,21.00
2010,07,23,15,33,21.00
2010,07,23,15,34,21.10
2010,07,23,15,35,21.20
2010,07,23,15,36,21.30
2010,07,23,15,37,21.50
2010,07,23,15,38,21.50
2010,07,23,15,39,21.50
2010,07,23,15,40,21.50
2010,07,23,15,41,21.40
2010,07,23,15,42,21.40
2010,07,23,15,43,21.40
2010,07,23,15,44,21.40
2010,07,23,15,45,21.40
2010,07,23,15,46,21.40
2010,07,23,15,47,21.50
2010,07,23,15,48,21.50
2010,07,23,15,49,21.60
2010,07,23,15,50,21.60
2010,07,23,15,51,21.60
2010,07,23,15,52,21.70
2010,07,23,15,53,21.90
2010,07,23,15,54,22.00
2010,07,23,15,55,22.20
2010,07,23,15,56,22.30
2010,07,23,15,57,22.40
2010,07,23,15,58,22.50
2010,07,23,15,59,22.40
2010,07,23,16,00,22.40
2010,07,23,16,01,22.40
2010,07,23,16,02,22.50
2010,07,23,16,03,22.60
2010,07,23,16,04,22.70
2010,07,23,16,05,22.80
2010,07,23,16,06,22.80
2010,07,23,16,07,22.90
2010,07,23,16,08,22.90
2010,07,23,16,09,22.80
2010,07,23,16,10,22.80
2010,07,23,16,11,22.80
2010,07,23,16,12,22.80
2010,07,23,16,13,22.80
2010,07,23,16,14,22.90
2010,07,23,16,15,22.90
2010,07,23,16,16,22.90
2010,07,23,16,17,22.90
2010,07,23,16,18,22.80
2010,07,23,16,19,22.80
2010,07,23,16,20,22.80
2010,07,23,16,21,22.80
2010,07,23,16,22,22.80
2010,07,23,16,23,22.80
2010,07,23,16,24,22.70
2010,07,23,16,25,22.70
2010,07,23,16,26,22.70
2010,07,23,16,27,22.70
2010,07,23,16,28,22.70
2010,07,23,16,29,22.60
2010,07,23,16,30,22.60
2010,07,23,16,31,22.60
2010,07,23,16,32,22.50
2010,07,23,16,33,22.50
2010,07,23,16,34,22.40
2010,07,23,16,35,22.40
2010,07,23,16,36,22.40
2010,07,23,16,37,22.20
2010,07,23,16,38,22.10
2010,07,23,16,39,21.90
2010,07,23,16,40,21.80
2010,07,23,16,41,21.80
2010,07,23,16,42,21.80
2010,07,23,16,43,21.80
2010,07,23,16,44,21.90
2010,07,23,16,45,22.00
2010,07,23,16,46,22.10
2010,07,23,16,47,22.10
2010,07,23,16,48,22.20
2010,07,23,16,49,22.30
2010,07,23,16,50,22.40
2010,07,23,16,51,22.50
2010,07,23,16,52,22.50
2010,07,23,16,53,22.50
2010,07,23,16,54,22.50
2010,07,23,16,55,22.50
2010,07,23,16,56,22.60
2010,07,23,16,57,22.70
2010,07,23,16,58,22.60
2010,07,23,16,59,22.60
2010,07,23,17,00,22.60
2010,07,23,17,01,22.60
2010,07,23,17,02,22.60
2010,07,23,17,03,22.60
2010,07,23,17,04,22.60
2010,07,23,17,05,22.60
2010,07,23,17,06,22.60
2010,07,23,17,07,22.60
2010,07,23,17,08,22.60
2010,07,23,17,09,22.70
2010,07,23,17,10,22.70
2010,07,23,17,11,22.70
2010,07,23,17,12,22.80
2010,07,23,17,13,22.80
2010,07,23,17,14,22.80
2010,07,23,17,15,22.80
2010,07,23,17,16,22.80
2010,07,23,17,17,22.80
2010,07,23,17,18,22.80
2010,07,23,17,19,22.80